Location: St. Louis
(38.6270°N, 90.1994°W)
Time: 02:11:33
(UTC-06:00)

Transit 2A - Pass Details

Date: 06 December 2021
Orbit: 591 x 966 km, 66.7° (Epoch: 24 January)

Event Time Altitude Azimuth Distance (km) Brightness Sun altitude
Rises 10:24:04 0° 308° (NW) 3,641 9.0 25.4°
Reaches altitude 10° 10:29:21 10° 271° (W) 2,635 8.6 25.8°
Maximum altitude 10:30:25 10° 261° (W) 2,586 8.7 25.9°
Drops below altitude 10° 10:31:28 10° 251° (WSW) 2,602 8.8 26.0°
Sets 10:36:31 0° 213° (SSW) 3,441 9.9 26.3°
